TTL2485 SBGO-SBSV

Flight info

Callsign TTL2485
Flight time 1h 37m
Altitude 35000
Route LODUV DCT UGTAK UZ19 DOTBI
Aircraft R722/M-SDFGRWY/S

Departure

Time 2026-04-21 14:11
Airport Santa Genoveva International Airport (SBGO)

Arrival

Time 2026-04-21 15:48
Airport Deputado Luiz Eduardo Magalhães International Airport (SBSV)
Time Latitude Longitude Altitude Speed Heading
2026-04-21 13:54 -16.63138 -49.22716 2459 ft 0 kts 174°
2026-04-21 13:58 -16.63125 -49.22716 2459 ft 2 kts 189°
2026-04-21 13:58 -16.63110 -49.22709 2461 ft 2 kts 217°
2026-04-21 13:59 -16.63100 -49.22696 2458 ft 2 kts 247°
2026-04-21 13:59 -16.63097 -49.22679 2457 ft 2 kts 270°
2026-04-21 13:59 -16.63099 -49.22666 2457 ft 1 kts 287°
2026-04-21 13:59 -16.63100 -49.22665 2461 ft 0 kts 290°
2026-04-21 14:05 -16.63096 -49.22672 2480 ft 4 kts 296°
2026-04-21 14:05 -16.63065 -49.22732 2461 ft 14 kts 300°
2026-04-21 14:05 -16.63000 -49.22847 2458 ft 22 kts 301°
2026-04-21 14:06 -16.62979 -49.22884 2459 ft 0 kts 298°
2026-04-21 14:06 -16.62972 -49.22897 2461 ft 5 kts 300°
2026-04-21 14:07 -16.62942 -49.22950 2459 ft 12 kts 301°
2026-04-21 14:07 -16.62893 -49.23040 2462 ft 18 kts 300°
2026-04-21 14:07 -16.62804 -49.23098 2465 ft 17 kts 345°
2026-04-21 14:07 -16.62761 -49.23111 2460 ft 0 kts 345°
2026-04-21 14:08 -16.62760 -49.23111 2460 ft 0 kts 345°
2026-04-21 14:09 -16.62757 -49.23112 2462 ft 2 kts 345°
2026-04-21 14:09 -16.62738 -49.23117 2463 ft 4 kts 345°
2026-04-21 14:09 -16.62698 -49.23128 2459 ft 8 kts 348°
2026-04-21 14:09 -16.62648 -49.23096 2462 ft 9 kts 89°
2026-04-21 14:10 -16.62675 -49.23036 2458 ft 14 kts 120°
2026-04-21 14:10 -16.62815 -49.22785 2461 ft 78 kts 120°
2026-04-21 14:10 -16.63218 -49.22067 2453 ft 151 kts 120°
2026-04-21 14:10 -16.63822 -49.20969 2700 ft 184 kts 121°
2026-04-21 14:11 -16.64534 -49.19827 3342 ft 195 kts 123°
2026-04-21 14:11 -16.65198 -49.18570 4022 ft 202 kts 107°
2026-04-21 14:11 -16.65240 -49.17062 4525 ft 219 kts 76°
2026-04-21 14:11 -16.64616 -49.15610 5192 ft 221 kts 57°
2026-04-21 14:12 -16.63585 -49.14393 5791 ft 234 kts 44°
2026-04-21 14:12 -16.62244 -49.13280 6385 ft 258 kts 39°
2026-04-21 14:12 -16.60794 -49.12087 7139 ft 269 kts 41°
2026-04-21 14:12 -16.59353 -49.10852 8220 ft 265 kts 40°
2026-04-21 14:13 -16.57891 -49.09675 9232 ft 270 kts 39°
2026-04-21 14:13 -16.56419 -49.08392 9979 ft 281 kts 46°
2026-04-21 14:13 -16.55141 -49.06817 10693 ft 289 kts 56°
2026-04-21 14:13 -16.53917 -49.05125 11409 ft 285 kts 56°
2026-04-21 14:14 -16.52762 -49.03545 12132 ft 274 kts 50°
2026-04-21 14:14 -16.51365 -49.02159 12802 ft 280 kts 44°
2026-04-21 14:14 -16.49931 -49.00738 13377 ft 288 kts 51°
2026-04-21 14:14 -16.48705 -48.99056 13960 ft 296 kts 61°
2026-04-21 14:15 -16.48526 -48.98752 14030 ft 297 kts 61°
2026-04-21 14:15 -16.47755 -48.97351 14339 ft 305 kts 63°
2026-04-21 14:15 -16.46642 -48.95406 14618 ft 320 kts 60°
2026-04-21 14:15 -16.45366 -48.93428 14882 ft 336 kts 58°
2026-04-21 14:16 -16.43590 -48.90676 15245 ft 355 kts 60°
2026-04-21 14:16 -16.42238 -48.88468 15509 ft 365 kts 60°
2026-04-21 14:16 -16.41314 -48.86967 15677 ft 365 kts 59°
2026-04-21 14:16 -16.39915 -48.84749 15920 ft 368 kts 59°
2026-04-21 14:17 -16.38505 -48.82523 16158 ft 369 kts 59°
2026-04-21 14:17 -16.37121 -48.80261 16397 ft 371 kts 61°
2026-04-21 14:17 -16.35829 -48.77931 16642 ft 372 kts 63°
2026-04-21 14:17 -16.34574 -48.75567 16886 ft 374 kts 63°
2026-04-21 14:18 -16.33265 -48.73218 17039 ft 376 kts 62°
2026-04-21 14:18 -16.31922 -48.70871 17284 ft 378 kts 62°
2026-04-21 14:18 -16.30594 -48.68503 17537 ft 380 kts 62°
2026-04-21 14:18 -16.29273 -48.66111 17795 ft 382 kts 63°
2026-04-21 14:19 -16.27938 -48.63708 18049 ft 384 kts 62°
2026-04-21 14:19 -16.26584 -48.61302 18307 ft 387 kts 62°
2026-04-21 14:19 -16.25245 -48.58919 18529 ft 387 kts 62°
2026-04-21 14:19 -16.23889 -48.56488 18747 ft 389 kts 62°
2026-04-21 14:20 -16.22509 -48.54017 18978 ft 390 kts 62°
2026-04-21 14:20 -16.21159 -48.51607 19201 ft 392 kts 62°
2026-04-21 14:20 -16.19784 -48.49154 19427 ft 393 kts 62°
2026-04-21 14:20 -16.18405 -48.46692 19653 ft 395 kts 62°
2026-04-21 14:21 -16.17020 -48.44222 19887 ft 396 kts 62°
2026-04-21 14:21 -16.15629 -48.41740 20110 ft 397 kts 62°
2026-04-21 14:21 -16.14236 -48.39256 20342 ft 399 kts 62°
2026-04-21 14:21 -16.12833 -48.36755 20578 ft 401 kts 62°
2026-04-21 14:22 -16.11426 -48.34249 20814 ft 402 kts 62°
2026-04-21 14:22 -16.10012 -48.31728 21055 ft 405 kts 62°
2026-04-21 14:22 -16.08587 -48.29191 21298 ft 406 kts 62°
2026-04-21 14:22 -16.07158 -48.26651 21547 ft 408 kts 63°
2026-04-21 14:23 -16.05724 -48.24098 21798 ft 410 kts 63°
2026-04-21 14:23 -16.04281 -48.21531 22040 ft 411 kts 63°
2026-04-21 14:23 -16.02836 -48.18961 22313 ft 414 kts 63°
2026-04-21 14:23 -16.01378 -48.16372 22580 ft 415 kts 63°
2026-04-21 14:24 -15.99916 -48.13775 22839 ft 417 kts 63°
2026-04-21 14:24 -15.98449 -48.11167 23112 ft 419 kts 63°
2026-04-21 14:24 -15.96973 -48.08544 23383 ft 421 kts 63°
2026-04-21 14:24 -15.95491 -48.05914 23657 ft 423 kts 63°
2026-04-21 14:25 -15.93999 -48.03271 23901 ft 425 kts 63°
2026-04-21 14:25 -15.92505 -48.00622 24131 ft 425 kts 63°
2026-04-21 14:25 -15.91010 -47.97968 24355 ft 427 kts 63°
2026-04-21 14:25 -15.89507 -47.95305 24569 ft 428 kts 63°
2026-04-21 14:26 -15.88000 -47.92637 24791 ft 429 kts 62°
2026-04-21 14:26 -15.86490 -47.89962 25006 ft 430 kts 62°
2026-04-21 14:26 -15.84975 -47.87280 25235 ft 431 kts 62°
2026-04-21 14:26 -15.83455 -47.84591 25458 ft 432 kts 62°
2026-04-21 14:27 -15.81932 -47.81897 25678 ft 433 kts 62°
2026-04-21 14:27 -15.80404 -47.79195 25786 ft 434 kts 62°
2026-04-21 14:27 -15.78873 -47.76488 26016 ft 436 kts 62°
2026-04-21 14:27 -15.77335 -47.73770 26250 ft 437 kts 62°
2026-04-21 14:28 -15.75792 -47.71048 26477 ft 438 kts 62°
2026-04-21 14:28 -15.74248 -47.68320 26710 ft 439 kts 62°
2026-04-21 14:28 -15.72698 -47.65580 26946 ft 441 kts 62°
2026-04-21 14:28 -15.71139 -47.62832 27183 ft 443 kts 62°
2026-04-21 14:29 -15.69577 -47.60077 27428 ft 443 kts 62°
2026-04-21 14:29 -15.68014 -47.57324 27674 ft 442 kts 62°
2026-04-21 14:29 -15.66450 -47.54564 27919 ft 444 kts 61°
2026-04-21 14:29 -15.64880 -47.51799 28166 ft 447 kts 62°
2026-04-21 14:30 -15.63300 -47.49012 28419 ft 448 kts 62°
2026-04-21 14:30 -15.61712 -47.46224 28671 ft 450 kts 62°
2026-04-21 14:30 -15.60118 -47.43423 28934 ft 451 kts 62°
2026-04-21 14:30 -15.58525 -47.40613 29183 ft 453 kts 62°
2026-04-21 14:31 -15.56928 -47.37798 29424 ft 453 kts 61°
2026-04-21 14:31 -15.55326 -47.34991 29699 ft 453 kts 62°
2026-04-21 14:31 -15.53722 -47.32176 29964 ft 454 kts 61°
2026-04-21 14:31 -15.52137 -47.29389 30207 ft 455 kts 62°
2026-04-21 14:32 -15.50527 -47.26557 30433 ft 457 kts 61°
2026-04-21 14:32 -15.48907 -47.23718 30667 ft 458 kts 62°
2026-04-21 14:32 -15.47284 -47.20873 30883 ft 459 kts 61°
2026-04-21 14:32 -15.45659 -47.18017 31110 ft 461 kts 61°
2026-04-21 14:33 -15.44031 -47.15166 31346 ft 459 kts 60°
2026-04-21 14:33 -15.42402 -47.12315 31581 ft 461 kts 62°
2026-04-21 14:33 -15.40770 -47.09452 31817 ft 462 kts 61°
2026-04-21 14:33 -15.39130 -47.06580 32048 ft 464 kts 62°
2026-04-21 14:34 -15.37482 -47.03697 32290 ft 465 kts 60°
2026-04-21 14:34 -15.35832 -47.00807 32533 ft 467 kts 61°
2026-04-21 14:34 -15.34179 -46.97916 32772 ft 467 kts 61°
2026-04-21 14:34 -15.32515 -46.95012 33031 ft 469 kts 62°
2026-04-21 14:35 -15.30851 -46.92104 33280 ft 470 kts 61°
2026-04-21 14:35 -15.29184 -46.89188 33523 ft 472 kts 61°
2026-04-21 14:35 -15.27510 -46.86262 33778 ft 472 kts 60°
2026-04-21 14:35 -15.25828 -46.83329 34031 ft 475 kts 61°
2026-04-21 14:36 -15.24144 -46.80393 34265 ft 476 kts 60°
2026-04-21 14:36 -15.22452 -46.77440 34489 ft 478 kts 62°
2026-04-21 14:36 -15.20800 -46.74561 34705 ft 480 kts 61°
2026-04-21 14:36 -15.19088 -46.71574 34943 ft 482 kts 62°
2026-04-21 14:37 -15.17371 -46.68580 35022 ft 487 kts 61°
2026-04-21 14:37 -15.13910 -46.62557 35023 ft 488 kts 61°
2026-04-21 14:38 -15.10438 -46.56515 35026 ft 488 kts 61°
2026-04-21 14:38 -15.06963 -46.50472 35031 ft 488 kts 60°
2026-04-21 14:39 -15.03488 -46.44439 35027 ft 489 kts 61°
2026-04-21 14:39 -14.99953 -46.38293 35040 ft 504 kts 61°
2026-04-21 14:40 -14.96352 -46.32057 35041 ft 505 kts 61°
2026-04-21 14:40 -14.92781 -46.25862 35034 ft 505 kts 61°
2026-04-21 14:41 -14.89704 -46.19377 35035 ft 504 kts 72°
2026-04-21 14:41 -14.87688 -46.12404 35033 ft 504 kts 76°
2026-04-21 14:42 -14.85553 -46.05562 35023 ft 504 kts 73°
2026-04-21 14:42 -14.83445 -45.98662 35037 ft 504 kts 75°
2026-04-21 14:43 -14.81345 -45.91757 35028 ft 504 kts 74°
2026-04-21 14:43 -14.79205 -45.84859 35028 ft 504 kts 75°
2026-04-21 14:44 -14.77107 -45.77949 35021 ft 504 kts 75°
2026-04-21 14:44 -14.74959 -45.71035 35031 ft 505 kts 75°
2026-04-21 14:45 -14.72846 -45.64115 35026 ft 506 kts 75°
2026-04-21 14:45 -14.70699 -45.57193 35025 ft 505 kts 75°
2026-04-21 14:46 -14.68575 -45.50280 35025 ft 505 kts 75°
2026-04-21 14:46 -14.66434 -45.43371 35022 ft 505 kts 75°
2026-04-21 14:47 -14.64299 -45.36455 35029 ft 504 kts 75°
2026-04-21 14:47 -14.62160 -45.29557 35026 ft 505 kts 75°
2026-04-21 14:48 -14.60024 -45.22661 35019 ft 505 kts 75°
2026-04-21 14:48 -14.57881 -45.15766 35018 ft 503 kts 75°
2026-04-21 14:49 -14.55743 -45.08882 35025 ft 504 kts 75°
2026-04-21 14:49 -14.53608 -45.02025 35024 ft 501 kts 75°
2026-04-21 14:50 -14.51839 -44.96340 35024 ft 501 kts 75°
2026-04-21 14:50 -14.49337 -44.88325 35021 ft 501 kts 75°
2026-04-21 14:51 -14.47204 -44.81480 35026 ft 501 kts 75°
2026-04-21 14:51 -14.45056 -44.74619 35025 ft 503 kts 75°
2026-04-21 14:52 -14.42921 -44.67804 35018 ft 503 kts 75°
2026-04-21 14:52 -14.40771 -44.60949 35010 ft 503 kts 75°
2026-04-21 14:53 -14.38611 -44.54069 35015 ft 503 kts 75°
2026-04-21 14:53 -14.36455 -44.47212 35013 ft 503 kts 75°
2026-04-21 14:54 -14.34296 -44.40349 35014 ft 504 kts 75°
2026-04-21 14:54 -14.32126 -44.33464 35014 ft 504 kts 75°
2026-04-21 14:55 -14.29959 -44.26590 35013 ft 504 kts 75°
2026-04-21 14:55 -14.27787 -44.19713 35008 ft 505 kts 75°
2026-04-21 14:56 -14.25611 -44.12826 35006 ft 505 kts 75°
2026-04-21 14:56 -14.23436 -44.05950 35011 ft 503 kts 75°
2026-04-21 14:57 -14.21266 -43.99087 35005 ft 505 kts 75°
2026-04-21 14:57 -14.19086 -43.92210 35008 ft 505 kts 75°
2026-04-21 14:58 -14.16907 -43.85338 35002 ft 505 kts 75°
2026-04-21 14:58 -14.14724 -43.78458 34999 ft 507 kts 75°
2026-04-21 14:59 -14.12530 -43.71560 35000 ft 506 kts 75°
2026-04-21 14:59 -14.10339 -43.64672 35000 ft 506 kts 75°
2026-04-21 15:00 -14.08144 -43.57778 35002 ft 505 kts 75°
2026-04-21 15:00 -14.06320 -43.52060 34996 ft 505 kts 75°
2026-04-21 15:01 -14.04129 -43.45186 34998 ft 505 kts 75°
2026-04-21 15:01 -14.01929 -43.38298 34995 ft 507 kts 75°
2026-04-21 15:02 -13.99352 -43.30237 34993 ft 507 kts 75°
2026-04-21 15:02 -13.97515 -43.24502 34994 ft 507 kts 75°
2026-04-21 15:03 -13.95302 -43.17605 34996 ft 507 kts 75°
2026-04-21 15:03 -13.93090 -43.10711 34994 ft 507 kts 75°
2026-04-21 15:04 -13.90874 -43.03818 34993 ft 507 kts 75°
2026-04-21 15:04 -13.88656 -42.96923 35000 ft 508 kts 75°
2026-04-21 15:05 -13.86436 -42.90032 35004 ft 507 kts 75°
2026-04-21 15:05 -13.83101 -42.79692 35007 ft 507 kts 75°
2026-04-21 15:06 -13.80880 -42.72812 35015 ft 507 kts 75°
2026-04-21 15:06 -13.78654 -42.65924 35024 ft 507 kts 75°
2026-04-21 15:07 -13.76433 -42.59066 35032 ft 504 kts 75°
2026-04-21 15:07 -13.74219 -42.52223 35030 ft 505 kts 75°
2026-04-21 15:08 -13.71998 -42.45380 35031 ft 504 kts 75°
2026-04-21 15:08 -13.69781 -42.38549 35031 ft 501 kts 75°
2026-04-21 15:09 -13.67571 -42.31747 35031 ft 502 kts 75°
2026-04-21 15:09 -13.65355 -42.24936 35031 ft 502 kts 75°
2026-04-21 15:10 -13.63140 -42.18134 35032 ft 500 kts 75°
2026-04-21 15:10 -13.60932 -42.11360 35028 ft 498 kts 76°
2026-04-21 15:11 -13.58738 -42.04654 35033 ft 499 kts 76°
2026-04-21 15:11 -13.56537 -41.97913 35036 ft 498 kts 76°
2026-04-21 15:12 -13.54328 -41.91166 35029 ft 496 kts 76°
2026-04-21 15:12 -13.52127 -41.84437 35030 ft 498 kts 76°
2026-04-21 15:13 -13.49918 -41.77702 35035 ft 498 kts 76°
2026-04-21 15:13 -13.47711 -41.70964 35040 ft 497 kts 76°
2026-04-21 15:14 -13.45501 -41.64240 35040 ft 497 kts 76°
2026-04-21 15:14 -13.43287 -41.57499 35051 ft 498 kts 76°
2026-04-21 15:15 -13.41072 -41.50770 35050 ft 497 kts 76°
2026-04-21 15:15 -13.38857 -41.44040 35048 ft 497 kts 76°
2026-04-21 15:16 -13.36641 -41.37319 35045 ft 497 kts 76°
2026-04-21 15:16 -13.34422 -41.30595 35052 ft 496 kts 76°
2026-04-21 15:17 -13.32208 -41.23884 35038 ft 496 kts 76°
2026-04-21 15:17 -13.29987 -41.17179 35039 ft 497 kts 76°
2026-04-21 15:18 -13.27768 -41.10462 35036 ft 498 kts 76°
2026-04-21 15:18 -13.25533 -41.03722 35025 ft 499 kts 76°
2026-04-21 15:19 -13.23302 -40.96986 35023 ft 499 kts 76°
2026-04-21 15:19 -13.21065 -40.90256 35020 ft 500 kts 75°
2026-04-21 15:20 -13.18826 -40.83507 35016 ft 500 kts 75°
2026-04-21 15:20 -13.16583 -40.76765 35012 ft 499 kts 75°
2026-04-21 15:21 -13.14346 -40.70023 35004 ft 499 kts 75°
2026-04-21 15:21 -13.12100 -40.63259 35010 ft 501 kts 75°
2026-04-21 15:22 -13.09844 -40.56495 35006 ft 504 kts 75°
2026-04-21 15:22 -13.07571 -40.49688 35005 ft 504 kts 74°
2026-04-21 15:23 -13.05313 -40.42921 35004 ft 505 kts 74°
2026-04-21 15:23 -13.03032 -40.36108 35007 ft 506 kts 74°
2026-04-21 15:24 -13.00747 -40.29288 35005 ft 505 kts 74°
2026-04-21 15:24 -12.98463 -40.22474 35005 ft 507 kts 74°
2026-04-21 15:25 -12.97314 -40.19053 34851 ft 509 kts 74°
2026-04-21 15:25 -12.96169 -40.15642 34303 ft 503 kts 74°
2026-04-21 15:25 -12.95049 -40.12322 33535 ft 485 kts 74°
2026-04-21 15:25 -12.93956 -40.09078 32720 ft 477 kts 74°
2026-04-21 15:26 -12.92884 -40.05881 31943 ft 473 kts 73°
2026-04-21 15:26 -12.91815 -40.02691 31082 ft 472 kts 73°
2026-04-21 15:26 -12.90745 -39.99513 30020 ft 471 kts 73°
2026-04-21 15:26 -12.89677 -39.96354 28811 ft 465 kts 73°
2026-04-21 15:27 -12.88629 -39.93243 27642 ft 459 kts 73°
2026-04-21 15:27 -12.87594 -39.90165 26527 ft 454 kts 73°
2026-04-21 15:27 -12.86575 -39.87126 25457 ft 449 kts 73°
2026-04-21 15:27 -12.85845 -39.84051 24458 ft 441 kts 84°
2026-04-21 15:28 -12.85641 -39.80935 23452 ft 436 kts 90°
2026-04-21 15:28 -12.85667 -39.77845 22310 ft 430 kts 94°
2026-04-21 15:28 -12.85810 -39.74803 21186 ft 426 kts 93°
2026-04-21 15:28 -12.85863 -39.71799 20305 ft 416 kts 90°
2026-04-21 15:29 -12.85831 -39.68876 19519 ft 407 kts 90°
2026-04-21 15:29 -12.85843 -39.65999 18863 ft 400 kts 91°
2026-04-21 15:29 -12.85905 -39.63189 18394 ft 391 kts 91°
2026-04-21 15:29 -12.85948 -39.60409 17884 ft 388 kts 90°
2026-04-21 15:30 -12.85956 -39.57646 17370 ft 386 kts 90°
2026-04-21 15:30 -12.85971 -39.54911 16877 ft 379 kts 90°
2026-04-21 15:30 -12.86009 -39.52200 16420 ft 379 kts 90°
2026-04-21 15:30 -12.86043 -39.49503 15986 ft 376 kts 90°
2026-04-21 15:31 -12.86063 -39.46830 15557 ft 371 kts 90°
2026-04-21 15:31 -12.86082 -39.44185 15132 ft 371 kts 90°
2026-04-21 15:31 -12.86110 -39.41546 14714 ft 367 kts 90°
2026-04-21 15:31 -12.86138 -39.38933 14306 ft 364 kts 90°
2026-04-21 15:32 -12.86160 -39.36346 13895 ft 363 kts 90°
2026-04-21 15:32 -12.86180 -39.33768 13448 ft 357 kts 90°
2026-04-21 15:32 -12.86204 -39.31240 12994 ft 353 kts 91°
2026-04-21 15:32 -12.86228 -39.28741 12543 ft 349 kts 91°
2026-04-21 15:33 -12.86249 -39.26269 12112 ft 345 kts 91°
2026-04-21 15:33 -12.86269 -39.23819 11669 ft 342 kts 91°
2026-04-21 15:33 -12.86291 -39.21402 11235 ft 337 kts 91°
2026-04-21 15:33 -12.86311 -39.19023 10810 ft 334 kts 92°
2026-04-21 15:34 -12.86330 -39.16662 10389 ft 328 kts 91°
2026-04-21 15:34 -12.86346 -39.14415 9971 ft 303 kts 92°
2026-04-21 15:34 -12.86360 -39.12332 9543 ft 283 kts 93°
2026-04-21 15:34 -12.86377 -39.10351 9100 ft 276 kts 92°
2026-04-21 15:35 -12.86394 -39.08407 8977 ft 270 kts 92°
2026-04-21 15:35 -12.86408 -39.06480 8829 ft 269 kts 92°
2026-04-21 15:35 -12.86424 -39.04555 8547 ft 272 kts 93°
2026-04-21 15:35 -12.86441 -39.02636 8278 ft 271 kts 92°
2026-04-21 15:36 -12.86454 -39.00724 8005 ft 269 kts 93°
2026-04-21 15:36 -12.86469 -38.98823 7748 ft 264 kts 93°
2026-04-21 15:36 -12.86485 -38.96935 7486 ft 264 kts 93°
2026-04-21 15:36 -12.86500 -38.95046 7222 ft 265 kts 93°
2026-04-21 15:37 -12.86511 -38.93165 6972 ft 264 kts 93°
2026-04-21 15:37 -12.86523 -38.91300 6714 ft 262 kts 94°
2026-04-21 15:37 -12.86556 -38.89440 6457 ft 259 kts 97°
2026-04-21 15:37 -12.86909 -38.87628 6215 ft 258 kts 110°
2026-04-21 15:38 -12.87547 -38.85919 5935 ft 255 kts 115°
2026-04-21 15:38 -12.88202 -38.84246 5674 ft 254 kts 113°
2026-04-21 15:38 -12.88792 -38.82534 5403 ft 256 kts 112°
2026-04-21 15:38 -12.89368 -38.80824 5141 ft 253 kts 112°
2026-04-21 15:39 -12.89962 -38.79125 4880 ft 252 kts 112°
2026-04-21 15:39 -12.90548 -38.77460 4609 ft 252 kts 112°
2026-04-21 15:39 -12.91142 -38.75751 4399 ft 249 kts 112°
2026-04-21 15:39 -12.91718 -38.74094 4383 ft 251 kts 112°
2026-04-21 15:40 -12.92298 -38.72428 4359 ft 249 kts 112°
2026-04-21 15:40 -12.92881 -38.70757 4337 ft 249 kts 112°
2026-04-21 15:40 -12.93464 -38.69082 4310 ft 252 kts 112°
2026-04-21 15:40 -12.94046 -38.67404 4287 ft 248 kts 112°
2026-04-21 15:41 -12.94627 -38.65737 4265 ft 250 kts 112°
2026-04-21 15:41 -12.95209 -38.64063 4237 ft 249 kts 112°
2026-04-21 15:41 -12.95789 -38.62397 4220 ft 249 kts 112°
2026-04-21 15:41 -12.96295 -38.60706 4183 ft 250 kts 101°
2026-04-21 15:42 -12.96244 -38.58922 4136 ft 253 kts 85°
2026-04-21 15:42 -12.95895 -38.57149 4124 ft 252 kts 81°
2026-04-21 15:42 -12.95512 -38.55501 4011 ft 224 kts 81°
2026-04-21 15:42 -12.95213 -38.54047 3856 ft 197 kts 83°
2026-04-21 15:43 -12.94959 -38.52740 3700 ft 179 kts 84°
2026-04-21 15:43 -12.94718 -38.51517 3519 ft 173 kts 83°
2026-04-21 15:43 -12.94478 -38.50320 3294 ft 172 kts 84°
2026-04-21 15:43 -12.94244 -38.49131 3081 ft 170 kts 84°
2026-04-21 15:44 -12.94004 -38.47943 2825 ft 171 kts 83°
2026-04-21 15:44 -12.93766 -38.46802 2451 ft 159 kts 84°
2026-04-21 15:44 -12.93556 -38.45695 2093 ft 157 kts 83°
2026-04-21 15:44 -12.93343 -38.44649 1757 ft 148 kts 83°
2026-04-21 15:45 -12.93148 -38.43644 1502 ft 141 kts 86°
2026-04-21 15:45 -12.92958 -38.42652 1243 ft 140 kts 82°
2026-04-21 15:45 -12.92740 -38.41692 980 ft 138 kts 84°
2026-04-21 15:45 -12.92565 -38.40687 955 ft 144 kts 89°
2026-04-21 15:46 -12.92398 -38.39670 978 ft 150 kts 84°
2026-04-21 15:46 -12.92148 -38.38620 809 ft 147 kts 81°
2026-04-21 15:46 -12.91985 -38.37980 767 ft 134 kts 84°
2026-04-21 15:46 -12.91814 -38.36995 578 ft 146 kts 85°
2026-04-21 15:47 -12.91632 -38.36062 450 ft 131 kts 82°
2026-04-21 15:47 -12.91437 -38.35117 359 ft 137 kts 82°
2026-04-21 15:47 -12.91248 -38.34205 162 ft 135 kts 83°
2026-04-21 15:47 -12.91055 -38.33269 50 ft 123 kts 82°
2026-04-21 15:48 -12.90906 -38.32522 41 ft 87 kts 78°
2026-04-21 15:48 -12.90823 -38.32075 44 ft 48 kts 79°
2026-04-21 15:48 -12.90773 -38.31820 47 ft 21 kts 77°
2026-04-21 15:48 -12.90796 -38.31735 47 ft 13 kts 143°
2026-04-21 15:49 -12.90849 -38.31714 46 ft 0 kts 167°
2026-04-21 15:49 -12.90882 -38.31711 46 ft 7 kts 195°
2026-04-21 15:50 -12.90920 -38.31781 47 ft 17 kts 257°
2026-04-21 15:50 -12.90949 -38.31918 46 ft 22 kts 258°
2026-04-21 15:50 -12.90984 -38.32093 44 ft 28 kts 258°
2026-04-21 15:50 -12.91027 -38.32301 41 ft 32 kts 258°
2026-04-21 15:51 -12.91063 -38.32482 40 ft 10 kts 258°
2026-04-21 15:51 -12.91091 -38.32526 39 ft 7 kts 186°
2026-04-21 15:51 -12.91156 -38.32542 38 ft 12 kts 200°
2026-04-21 15:51 -12.91191 -38.32556 37 ft 1 kts 201°
2026-04-21 15:52 -12.91205 -38.32561 37 ft 0 kts 200°
2026-04-21 15:52 -12.91205 -38.32562 37 ft 0 kts 200°